Location: Dos Palmas
(32.4468°N, 116.8732°W)
Time: 03:15:48
(UTC+00:00)

USA 281 - Pass Details

Date: 20 June 2021
Orbit: 1078 x 1081 km, 106.0° (Epoch: 18 July)

Event Time Altitude Azimuth Distance (km) Brightness Sun altitude
Rises 10:58:12 0° 157° (SSE) 3,863 5.9 -18.2°
Reaches altitude 10° 11:00:42 10° 157° (SSE) 2,910 5.3 -17.8°
Maximum altitude 11:07:16 90° 254° (WSW) 1,085 3.2 -16.8°
Drops below altitude 10° 11:13:51 10° 339° (NNW) 2,925 5.8 -15.8°
Sets 11:16:22 0° 339° (NNW) 3,884 6.4 -15.4°
